Probability
0 0 0 0 0 0 0 0 0 0 0 0 0 0 0 0 0 0 0 0 0 0 0 0 0 0 0 0 0 0 0 0 0 0 0 0 0 0 0 0 0 0 0 0 0 0 0 0 0
0 0 0 0 0 0 0 0 0 0 0 0 0 0 0 0 0 0 0 0 0 0 0 0 0 0 0 0 0 0 0 0 0 0 0 0 0 0 0 0 0 0 0 0 0 0 0 0 0
0 0 0 0 0 0 0 0 0 0 0 0 0 0 0 0 0 0 0 0 0 0 0 0 0 0 0 0 0 0 0 0 0 0 0 0 0 0 0 0 0 0 0 0 0 0 0 0 0
0 0 0 0 0 0 0 0 0 0 0 0 0 0 0 0 0 0 0 0 0 0 0 0 0 0 0 0 0 0 0 0 0 0 0 0 0 0 0 0 0 0 0 0 0 0 0 0 0
0 0 0 0 0 0 0 0 0 0 0 0 0 0 0 0 0 0 0 0 0 0 0 0 0 0 0 0 0 0 0 0 0 0 0 0 0 0 0 0 0 0 0 0 0 0 0 0 0
0 0 0 0 0 0 0 0 0 0 0 0 0 0 0 0 0 0 0 0 0 0 0 0 0 0 0 0 0 0 0 0 0 0 0 0 0 0 0 0 0 0 0 0 0 0 0 0 0
0 0 0 0 0 0 0 0 0 0 0 0 0 0 0 0 0 0 0 0 0 0 0 0 0 0 0 0 0 0 0 0 0 0 0 0 0 0 0 0 0 0 0 0 0 0 0 0 0
0 0 0 0 0 0 0 0 0 0 0 0 0 0 0 0 0 0 0 0 0 0 0 0 0 0 0 0 0 0 0 0 0 0 0 0 0 0 0 0 0 0 0 0 0 0 0 0 0
0 0 0 0 0 0 0 0 0 0 0 0 0 0 0 0 0 0 0 0 0 0 0 0 0 0 0 0 0 0 0 0 0 0 0 0 0 0 0 0 0 0 0 0 0 0 0 0 0
0 0 0 0 0 0 0 0 0 0 0 0 0 0 0 0 0 0 0 0 0 0 0 0 0 0 0 0 0 0 0 0 0 0 0 0 0 0 0 0 0 0 0 0 0 0 0 0 0
0 0 0 0 0 0 0 0 0 0 0 0 0 0 0 0 0 0 0 0 0 0 0 0 0 0 0 0 0 0 0 0 0 0 0 0 0 0 0 0 0 0 0 0 0 0 0 0 0
0 0 0 0 0 0 0 0 0 0 0 0 0 0 0 0 0 0 0 0 0 0 0 0 0 0 0 0 0 0 0 0 0 0 0 0 0 0 0 0 0 0 0 0 0 0 0 0 0
0 0 0 0 0 0 0 0 0 0 0 0 0 0 0 0 0 0 0 0 0 0 0 0 0 0 0 0 0 0 0 0 0 0 0 0 0 0 0 0 0 0 0 0 0 0 0 0 0
0 0 0 0 0 0 0 0 0 0 0 0 0 0 0 0 0 0 0 0 0 0 0 0 0 0 0 0 0 0 0 0 0 0 0 0 0 0 0 0 0 0 0 0 0 0 0 0 0
0 0 0 0 0 0 0 0 0 0 0 0 0 0 0 0 0 0 0 0 0 0 0 0 0 0 0 0 0 0 0 0 0 0 0 0 0 0 0 0 0 0 0 0 0 0 0 0 0
0 0 0 0 0 0 0 0 0 0 0 0 0 0 0 0 0 0 0 0 0 0 0 0 0 0 0 0 0 0 0 0 0 0 0 0 0 0 0 0 0 0 0 0 0 0 0 0 0
0 0 0 0 0 0 0 0 0 0 0 0 0 0 0 0 0 0 0 0 0 0 0 0 0 0 0 0 0 0 0 0 0 0 0 0 0 0 0 0 0 0 0 0 0 0 0 0 0
0 0 0 0 0 0 0 0 0 0 0 0 0 0 0 0 0 0 0 0 0 0 0 0 0 0 0 0 0 0 0 0 0 0 0 0 0 0 0 0 0 0 0 0 0 0 0 0 0
0 0 0 0 0 0 0 0 0 0 0 0 0 0 0 0 0 0 0 0 0 0 0 0 0 0 0 0 0 0 0 0 0 0 0 0 0 0 0 0 0 0 0 0 0 0 0 0 0
0 0 0 0 0 0 0 0 0 0 0 0 0 0 0 0 0 0 0 0 0 0 0 0 0 0 0 0 0 0 0 0 0 0 0 0 0 0 0 0 0 0 0 0 0 0 0 0 0
0 0 0 0 0 0 0 0 0 0 0 0 0 0 0 0 0 0 0 0 0 0 0 0 0 0 0 0 0 0 0 0 0 0 0 0 0 0 0 0 0 0 0 0 0 0 0 0 0
0 0 0 0 0 0 0 0 0 0 0 0 0 0 0 0 0 0 0 0 0 0 0 0 0 0 0 0 0 0 0 0 0 0 0 0 0 0 0 0 0 0 0 0 0 0 0 0 0
0 0 0 0 0 0 0 0 0 0 0 0 0 0 0 0 0 0 0 0 0 0 0 0 0 0 0 0 0 0 0 0 0 0 0 0 0 0 0 0 0 0 0 0 0 0 0 0 0
0 0 0 0 0 0 0 0 0 0 0 0 0 0 0 0 0 0 0 0 0 0 0 0 0 0 0 0 0 0 0 0 0 0 0 0 0 0 0 0 0 0 0 0 0 0 0 0 0
0 0 0 0 0 0 0 0 0 0 0 0 0 0 0 0 0 0 0 0 0 0 0 0 0 0 0 0 0 0 0 0 0 0 0 0 0 0 0 0 0 0 0 0 0 0 0 0 0
0 0 0 0 0 0 0 0 0 0 0 0 0 0 0 0 0 0 0 0 0 0 0 0 0 0 0 0 0 0 0 0 0 0 0 0 0 0 0 0 0 0 0 0 0 0 0 0 0
0 0 0 0 0 0 0 0 0 0 0 0 0 0 0 0 0 0 0 0 0 0 0 0 0 0 0 0 0 0 0 0 0 0 0 0 0 0 0 0 0 0 0 0 0 0 0 0 0
0 0 0 0 0 0 0 0 0 0 0 0 0 0 0 0 0 0 0 0 0 0 0 0 0 0 0 0 0 0 0 0 0 0 0 0 0 0 0 0 0 0 0 0 0 0 0 0 0
0 0 0 0 0 0 0 0 0 0 0 0 0 0 0 0 0 0 0 0 0 0 0 0 0 0 0 0 0 0 0 0 0 0 0 0 0 0 0 0 0 0 0 0 0 0 0 0 0
0 0 0 0 0 0 0 0 0 0 0 0 0 0 0 0 0 0 0 0 0 0 0 0 0 0 0 0 0 0 0 0 0 0 0 0 0 0 0 0 0 0 0 0 0 0 0 0 0
Wind_Speed
4 2 3 4 6 4 2 4 4 4 3 2 3 5 5 4 4 4 1 11 12 15 17 20 24 23 21 20 18 17 16 15 14 13 12 12 11 11 11 11 11 11 11 11 12 12 12 13 12
1 2 4 5 5 1 4 4 5 6 6 4 3 4 3 4 2 3 5 10 15 16 15 16 24 23 22 21 19 18 17 16 15 14 13 12 12 11 11 11 11 10 10 10 10 11 11 11 11
1 1 4 5 3 5 4 4 6 3 4 4 4 3 3 5 5 8 7 14 16 15 13 17 26 24 23 21 20 19 18 17 16 15 14 13 12 12 11 11 10 10 10 9 9 10 10 10 10
3 4 5 4 4 7 6 7 6 4 3 3 5 3 3 3 6 8 9 17 17 14 12 15 26 24 23 22 21 20 19 18 17 16 15 14 13 12 12 11 11 10 9 9 9 9 9 9 9
4 4 3 2 6 6 5 7 7 7 6 5 5 5 4 2 3 7 14 19 19 15 12 13 25 25 23 22 22 20 19 18 18 17 16 15 14 13 12 12 11 10 9 9 8 8 7 7 7
4 5 3 3 7 7 5 4 6 5 4 3 5 4 5 2 4 8 15 16 16 16 14 13 25 24 23 23 22 21 20 19 18 17 17 16 15 14 13 12 12 11 10 9 8 7 6 6 6
4 4 2 3 5 7 5 1 4 4 4 6 7 5 4 3 4 7 10 10 10 12 12 10 13 18 23 23 22 21 21 20 19 18 18 17 16 15 15 14 13 11 10 9 8 7 6 5 4
5 4 1 3 4 7 4 2 2 4 6 3 8 8 8 7 6 7 7 7 8 10 11 10 9 11 12 14 21 22 21 20 19 19 18 17 16 16 15 14 13 13 11 10 9 8 6 5 4
4 4 3 5 4 6 3 2 3 2 3 2 4 5 4 9 11 9 6 6 8 11 11 11 10 9 9 9 15 18 20 20 19 16 18 16 7 6 8 12 14 14 13 12 10 9 8 7 5
4 3 7 6 4 5 4 4 4 3 4 4 4 2 3 10 14 15 13 14 15 17 15 13 12 10 9 9 8 7 7 9 9 6 8 6 5 5 6 13 16 15 14 13 12 11 9 6 2
5 7 6 6 6 5 4 4 3 3 8 10 10 6 7 9 13 16 17 18 19 16 15 15 14 11 10 8 6 4 4 5 6 7 7 5 5 4 5 4 6 7 9 5 6 5 2 2 3
4 7 6 6 4 3 5 4 3 6 13 8 7 6 10 13 17 19 19 18 13 11 16 15 14 12 12 9 7 6 5 5 5 7 8 6 4 4 4 4 3 3 2 3 3 2 3 4 5
4 6 5 6 6 5 5 5 5 10 15 8 7 6 13 17 18 18 16 14 12 13 15 15 15 15 13 10 8 8 8 7 7 6 8 8 7 6 5 4 4 4 3 4 4 4 5 5 5
4 4 7 9 9 5 6 5 3 13 8 6 6 8 13 17 20 15 13 14 16 17 16 14 17 16 13 13 11 9 8 7 7 8 9 10 8 7 6 6 6 6 5 5 5 6 6 5 5
3 5 9 6 3 2 1 6 7 12 7 9 9 7 9 14 14 18 19 19 20 18 15 16 16 15 15 15 13 10 9 9 9 9 10 11 10 9 8 7 7 7 6 6 5 6 5 5 6
3 3 5 8 1 1 1 10 10 7 6 9 8 6 4 6 11 15 16 16 15 13 14 16 14 15 16 15 13 9 9 10 10 9 10 13 13 11 9 8 8 7 6 6 6 5 5 6 6
3 2 5 8 3 1 2 11 10 4 4 5 6 6 5 4 4 7 10 13 13 14 13 14 15 16 16 14 10 9 8 10 9 9 10 12 13 13 11 10 8 7 6 7 8 7 6 6 7
3 5 5 6 6 2 5 12 15 6 1 1 4 6 7 7 7 6 6 8 9 10 11 12 14 14 12 9 6 6 7 8 8 9 10 11 12 13 12 9 9 8 7 8 7 7 7 6 6
4 4 8 8 5 4 7 12 14 6 3 3 4 5 7 7 7 8 5 1 4 6 9 11 13 12 9 7 8 9 11 9 7 9 10 12 12 13 13 11 9 10 10 11 11 8 8 7 3
4 5 7 7 4 3 6 9 8 1 4 4 4 5 6 7 10 10 9 5 0 3 6 8 11 10 11 11 9 6 6 5 6 6 8 11 13 13 13 13 10 11 10 11 11 10 6 6 6
4 5 5 5 8 5 5 8 5 4 3 3 3 3 4 5 7 8 8 6 4 2 4 6 9 10 10 9 4 2 1 1 3 6 7 11 13 14 14 15 14 12 12 12 13 13 13 10 8
5 4 3 3 4 5 3 3 6 1 1 1 2 3 4 5 5 6 7 7 6 4 2 3 4 6 7 7 6 9 9 10 11 9 8 9 12 14 15 14 15 14 13 14 14 14 12 12 10
5 1 2 2 1 4 2 2 8 2 4 4 2 0 2 3 4 5 6 6 6 6 4 2 1 2 4 6 8 9 11 12 8 5 8 9 10 13 15 15 15 15 14 16 14 14 15 14 14
1 4 4 4 4 3 3 3 7 5 8 6 3 2 1 2 3 4 4 5 6 6 6 5 3 2 2 5 7 9 12 11 10 9 9 9 8 9 14 14 15 16 15 16 16 16 16 16 16
4 5 5 6 4 5 3 3 9 6 5 8 7 4 2 0 1 3 4 5 6 7 6 5 4 3 3 4 6 9 11 11 12 12 10 10 8 9 11 13 14 15 16 16 14 15 17 18 16
2 6 4 2 4 7 6 5 7 5 3 5 5 4 2 1 1 1 2 3 4 5 5 5 5 5 4 4 6 7 8 7 9 10 10 10 9 10 10 12 14 16 16 16 15 15 17 15 18
2 3 5 5 1 4 7 7 5 3 5 4 3 2 3 2 2 1 2 2 3 4 4 4 5 6 6 6 6 6 7 7 9 10 9 9 10 9 10 11 13 14 15 16 15 14 17 16 17
2 5 4 3 1 4 7 6 5 4 3 3 4 4 4 2 2 2 2 3 4 4 4 5 4 5 6 6 5 5 7 7 8 8 9 10 10 10 10 10 12 13 14 14 15 15 15 17 16
4 3 4 4 4 4 4 9 5 5 5 5 5 5 4 3 2 3 3 3 4 5 5 5 5 5 6 6 6 6 7 7 7 7 9 9 9 9 10 10 11 12 13 13 14 16 14 17 17
6 7 7 4 5 5 3 10 4 4 3 3 3 2 3 2 2 2 3 4 5 6 6 6 6 6 6 6 6 7 7 7 7 8 9 9 9 9 9 10 10 11 12 12 14 16 16 17 18
Wind_Direction
316 22 67 57 54 49 274 261 186 183 194 196 147 128 147 185 196 226 167 150 148 161 172 176 174 173 171 169 167 164 162 159 155 150 145 140 134 127 121 115 108 103 98 94 90 86 83 79 77
344 62 57 62 86 55 275 257 183 194 188 155 129 121 142 222 203 156 152 170 158 164 171 173 176 175 173 171 169 168 166 164 161 158 154 149 144 137 131 125 119 114 107 102 96 91 86 82 79
326 87 84 78 130 189 230 233 211 219 191 164 156 157 182 214 191 192 193 164 159 167 171 176 177 177 176 174 172 172 170 169 167 164 161 158 153 148 142 136 131 124 118 111 104 98 92 87 83
57 52 58 81 238 230 216 223 211 180 225 206 158 181 231 216 189 189 162 160 161 169 171 180 179 179 178 177 176 175 174 173 171 169 167 165 161 156 151 146 141 136 130 123 115 107 99 93 88
63 75 61 323 267 264 248 220 187 187 202 208 177 192 238 283 172 153 155 163 167 170 172 184 182 183 182 181 180 178 178 177 176 174 173 171 167 163 160 157 154 150 144 137 130 120 111 102 94
58 68 81 271 279 289 284 220 173 202 218 209 185 200 243 329 160 164 162 168 170 170 173 183 186 186 185 185 183 182 182 181 180 179 178 177 174 171 170 168 165 162 157 152 146 138 128 118 108
106 101 186 246 282 298 296 209 182 204 218 212 186 190 266 267 208 156 156 156 163 170 175 186 189 188 189 189 188 186 186 185 185 184 184 182 181 180 178 177 175 173 170 167 163 157 151 141 128
121 104 253 262 266 279 287 289 235 214 236 211 156 178 235 219 164 133 133 146 162 175 182 188 192 188 188 190 193 191 190 190 189 189 188 187 187 188 186 184 184 183 182 180 179 177 176 172 161
87 85 240 243 240 263 279 290 279 290 256 248 198 208 244 142 136 133 140 161 176 186 192 190 192 188 184 186 197 194 195 194 193 193 192 190 186 185 188 186 192 192 192 192 192 192 194 194 196
96 165 233 226 219 245 265 248 264 282 268 262 262 308 89 140 158 169 179 184 189 194 195 193 193 188 182 190 195 191 191 193 188 182 186 170 162 180 182 195 201 201 200 202 203 205 205 198 210
169 202 234 248 245 238 256 260 251 245 262 234 229 215 160 169 178 188 194 194 197 194 192 195 194 189 186 189 186 185 184 184 180 179 173 162 164 184 192 198 213 211 206 201 214 217 188 181 203
228 242 236 253 259 248 248 256 266 235 244 238 228 186 174 185 193 198 201 204 197 190 197 196 193 191 192 190 189 185 186 186 187 185 176 169 175 188 192 198 207 203 187 184 202 210 217 222 223
247 262 274 273 281 258 254 252 262 263 261 272 258 188 190 198 205 209 210 207 198 199 198 196 193 195 193 192 194 194 196 195 189 186 188 183 185 193 197 204 204 204 194 191 200 212 222 229 232
269 286 294 285 275 252 237 262 227 268 284 307 281 227 209 209 212 211 212 211 208 208 203 195 196 197 193 197 200 201 198 194 191 195 196 193 192 192 195 203 206 208 203 200 202 209 217 226 227
311 322 318 298 292 286 179 292 238 255 313 311 300 277 231 222 216 214 213 213 211 210 203 198 197 195 197 200 201 201 198 196 202 202 198 200 199 197 198 204 209 211 204 203 207 217 219 228 230
3 5 318 301 321 285 261 274 262 277 311 308 314 321 297 244 224 225 222 219 215 209 204 203 199 197 201 203 201 202 199 201 207 204 202 205 205 201 200 207 213 205 198 200 207 211 215 227 228
17 323 283 297 287 222 243 268 279 310 305 312 332 348 355 342 293 248 233 223 215 209 204 201 201 200 202 202 201 202 200 206 207 205 207 207 207 205 205 212 211 196 200 207 216 212 208 221 227
269 279 275 277 288 271 261 269 288 310 291 333 1 14 18 15 342 302 252 228 213 205 202 203 204 206 199 193 193 198 208 212 209 209 211 205 206 205 208 213 208 196 204 213 214 218 212 218 221
235 249 273 269 279 299 270 279 292 307 102 89 50 32 27 9 348 2 357 267 191 194 198 201 203 204 190 187 196 204 214 213 211 214 211 207 207 204 207 215 208 204 214 218 214 214 218 224 187
239 273 282 293 327 303 290 294 302 336 132 137 97 50 32 19 11 9 13 26 91 211 211 208 207 202 198 204 205 206 212 215 215 215 214 210 211 209 211 215 214 209 216 219 215 208 216 218 184
265 245 260 285 327 346 355 343 356 23 64 68 51 42 32 30 18 7 8 12 11 310 236 221 217 210 208 206 189 186 176 262 222 218 220 215 213 213 216 217 216 214 213 221 218 211 212 222 208
269 255 245 301 1 313 24 310 289 280 72 77 44 32 33 24 22 15 11 8 0 333 309 258 232 218 212 196 193 199 210 224 227 224 224 219 215 217 218 220 219 219 218 223 221 216 215 214 221
238 306 281 262 144 318 316 202 280 248 208 214 218 68 47 33 30 20 10 4 2 359 359 346 307 229 212 203 207 214 229 238 243 234 232 230 224 223 222 221 222 224 223 225 223 218 215 215 222
12 25 39 48 65 321 257 178 276 220 205 193 199 199 95 40 26 15 7 13 7 6 11 11 12 317 232 215 219 222 235 243 248 245 241 240 235 230 227 225 226 227 227 226 224 222 220 220 222
68 59 12 353 4 270 286 232 255 256 201 168 172 183 196 266 14 3 13 12 4 3 1 0 359 328 287 239 234 232 238 243 246 250 249 248 247 241 235 228 230 231 232 231 226 224 225 224 223
182 134 151 239 262 293 317 260 271 309 98 118 140 162 187 232 263 325 352 358 348 351 353 348 339 320 307 278 259 250 245 245 251 253 251 251 252 250 242 232 234 235 234 232 228 228 228 227 228
157 165 169 144 270 279 287 295 316 29 75 102 134 162 204 233 240 286 329 348 344 343 338 331 322 313 307 295 283 275 262 252 254 258 256 257 257 258 250 241 239 239 237 234 230 231 230 229 229
148 147 104 132 224 277 292 286 237 201 185 185 194 211 229 250 279 292 320 333 333 329 326 332 326 309 302 301 290 282 277 267 262 265 264 262 262 261 260 255 248 246 242 238 234 236 234 232 232
161 178 156 147 165 181 269 274 233 194 191 194 214 223 233 249 263 285 309 319 324 327 328 328 327 321 314 308 300 295 289 285 279 271 269 268 269 267 263 262 257 253 249 243 239 238 235 235 236
185 187 153 164 228 193 206 267 262 166 177 186 218 256 274 278 292 306 320 326 327 324 321 319 315 312 305 303 304 301 298 297 291 283 280 278 275 272 268 266 263 260 256 248 242 243 239 237 238